TimeCDT,TemperatureF,Dew PointF,Humidity,Sea Level PressureIn,VisibilityMPH,Wind Direction,Wind SpeedMPH,Gust SpeedMPH,PrecipitationIn,Events,Conditions,WindDirDegrees,DateUTC
12:42 AM,55.4,50.0,82,29.64,4.0,SSE,9.2,-,N/A,,Overcast,160,2013-05-27 05:42:00
1:42 AM,51.8,48.2,88,30.40,4.0,ESE,3.5,-,N/A,,Overcast,110,2013-05-27 06:42:00
2:43 AM,53.6,50.0,88,30.38,4.0,SE,4.6,-,N/A,,Overcast,130,2013-05-27 07:43:00
3:47 AM,51.8,48.2,88,29.78,4.0,ESE,4.6,-,N/A,,Overcast,120,2013-05-27 08:47:00
4:42 AM,51.8,48.2,88,30.35,4.0,East,3.5,-,N/A,,Overcast,90,2013-05-27 09:42:00
5:41 AM,51.8,48.2,88,30.33,4.0,SSE,8.1,-,N/A,,Mostly Cloudy,150,2013-05-27 10:41:00
6:42 AM,50.0,46.4,87,29.86,4.0,ENE,3.5,-,N/A,,Mostly Cloudy,70,2013-05-27 11:42:00
7:44 AM,50.0,48.2,94,30.36,4.0,Calm,Calm,-,N/A,,Mostly Cloudy,0,2013-05-27 12:44:00
8:45 AM,55.4,48.2,77,30.36,5.0,ENE,4.6,-,N/A,,Scattered Clouds,70,2013-05-27 13:45:00
9:42 AM,59.0,48.2,67,29.79,6.0,East,6.9,-,N/A,,Scattered Clouds,90,2013-05-27 14:42:00
10:44 AM,62.6,46.4,55,30.37,6.0,SSE,6.9,-,N/A,,Scattered Clouds,150,2013-05-27 15:44:00
11:45 AM,62.6,48.2,59,30.37,6.0,Calm,Calm,-,N/A,,Mostly Cloudy,0,2013-05-27 16:45:00
12:45 PM,64.4,46.4,52,29.77,6.0,ESE,6.9,-,N/A,,Mostly Cloudy,110,2013-05-27 17:45:00
1:45 PM,64.4,48.2,56,30.36,6.0,ESE,3.5,-,N/A,,Overcast,120,2013-05-27 18:45:00
2:45 PM,62.6,48.2,59,30.34,6.0,SE,8.1,-,N/A,,Overcast,140,2013-05-27 19:45:00
3:40 PM,62.6,48.2,59,29.80,6.0,SSE,10.4,-,N/A,,Overcast,160,2013-05-27 20:40:00
4:46 PM,64.4,48.2,56,30.30,6.0,SSE,9.2,-,N/A,,Overcast,150,2013-05-27 21:46:00
5:47 PM,64.4,46.4,52,30.27,6.0,Calm,Calm,-,N/A,,Mostly Cloudy,0,2013-05-27 22:47:00
6:41 PM,64.4,46.4,52,29.74,6.0,Calm,Calm,-,N/A,,Mostly Cloudy,0,2013-05-27 23:41:00
7:45 PM,62.6,50.0,63,30.27,5.0,NE,4.6,-,N/A,Thunderstorm,Thunderstorm,40,2013-05-28 00:45:00
8:01 PM,59.0,51.8,77,30.27,3.0,NNE,12.7,-,N/A,Rain-Thunderstorm,Light Thunderstorms and Rain,20,2013-05-28 01:01:00
8:42 PM,57.2,51.8,82,30.30,3.0,ESE,6.9,-,N/A,Rain-Thunderstorm,Light Thunderstorms and Rain,120,2013-05-28 01:42:00
9:45 PM,55.4,50.0,82,29.78,3.0,SSE,5.8,-,N/A,Rain-Thunderstorm,Light Thunderstorms and Rain,150,2013-05-28 02:45:00
10:44 PM,55.4,51.8,88,30.33,3.0,Calm,Calm,-,N/A,,Haze,0,2013-05-28 03:44:00
11:47 PM,55.4,51.8,88,30.34,3.0,Calm,Calm,-,N/A,,Haze,0,2013-05-28 04:47:00